Location: Neuvy Saint Sepulchre
(46.5953°N, 1.8122°E)
Time: 19:52:55
(UTC+01:00)

ISS - Pass Details

Date: 29 November 2021
Orbit: 417 x 422 km, 51.6° (Epoch: 06 December)

Event Time Altitude Azimuth Distance (km) Brightness Sun altitude
Rises 18:39:26 0° 285° (WNW) 2,377 1.1 -15.2°
Reaches altitude 10° 18:41:41 10° 295° (WNW) 1,512 -0.2 -15.6°
Maximum altitude 18:44:48 33° 2° (N) 732 -2.7 -16.1°
Enters shadow 18:45:31 30° 29° (NNE) 791 -2.8 -16.2°
